Weather History for KUIN - January, 2013

Change the Weather History Date:

Thursday, January 3, 2013

  Actual Average Record
Temperature  
Mean Temperature 24 °F 27 °F  
Max Temperature 34 °F 34 °F 63 °F (1998)
Min Temperature 14 °F 19 °F -16 °F (1904)
Degree Days  
Heating Degree Days 41 38  
Month to date heating degree days 142 114  
Since 1 July heating degree days 2190 2305  
Cooling Degree Days 0 0  
Month to date cooling degree days 0 0  
Year to date cooling degree days 0 0  
Moisture  
Dew Point 20 °F    
Average Humidity 76    
Maximum Humidity 88    
Minimum Humidity 64    
Precipitation  
Precipitation 0.00 in 0.06 in 1.43 in (1971)
Month to date precipitation 0.00 0.17  
Year to date precipitation 0.00 0.17  
Sea Level Pressure  
Sea Level Pressure 30.31 in    
Wind  
Wind Speed 8 mph (WNW)    
Max Wind Speed 20 mph    
Max Gust Speed 23 mph    
Visibility 9 miles    
Events      
T = Trace of Precipitation, MM = Missing Value Source: NWS Daily Summary

Daily Weather History Graph

Daily Weather History Graph

Search for Another Location

Airport or City:

Trip Planner

Search our weather history database for the weather conditions in past years. The results will help you decide how hot, cold, wet, or windy it might be!

Date:

Astronomy

Jan. 03, 2013 Rise Set
Actual Time 7:26 AM CST 4:52 PM CST
Civil Twilight 6:56 AM CST 5:22 PM CST
Nautical Twilight 6:22 AM CST 5:56 PM CST
Astronomical Twilight 5:49 AM CST 6:29 PM CST
Moon 11:27 PM CST (1/3) 10:38 AM CST (1/3)
Length of Visible Light 10h 26m
Length of Day
9h 25m
Waning Gibbous, 65% of the Moon is Illuminated
Jan 3
Waning Gibbous
Jan 4
Last Quarter
Jan 11
New
Jan 18
First Quarter
Jan 26
Full

Hourly Weather History & Observations

Time (CST) Temp. Windchill Dew Point Humidity Pressure Visibility Wind Dir Wind Speed Gust Speed Precip Events Conditions
12:33 AM 26.6 °F 19.1 °F 19.4 °F 74% 30.17 in 10.0 mi West 6.9 mph - N/A   Overcast
12:54 AM 27.0 °F 18.7 °F 19.9 °F 75% 30.20 in 10.0 mi West 8.1 mph - N/A   Overcast
1:54 AM 28.0 °F 20.0 °F 21.0 °F 75% 30.22 in 10.0 mi West 8.1 mph - N/A   Overcast
2:16 AM 26.6 °F 17.5 °F 19.4 °F 74% 30.20 in 10.0 mi West 9.2 mph - N/A   Mostly Cloudy
2:54 AM 27.0 °F 18.7 °F 21.0 °F 78% 30.23 in 10.0 mi West 8.1 mph - N/A   Overcast
3:54 AM 27.0 °F 18.0 °F 21.0 °F 78% 30.24 in 10.0 mi West 9.2 mph - N/A   Overcast
4:54 AM 24.1 °F 17.0 °F 19.9 °F 84% 30.25 in 8.0 mi WSW 5.8 mph - N/A   Overcast
5:54 AM 25.0 °F 17.1 °F 21.0 °F 85% 30.26 in 8.0 mi West 6.9 mph - N/A   Overcast
6:54 AM 24.1 °F 17.0 °F 19.9 °F 84% 30.27 in 7.0 mi WSW 5.8 mph - N/A   Overcast
7:54 AM 24.1 °F 17.0 °F 21.0 °F 88% 30.29 in 6.0 mi WSW 5.8 mph - N/A   Overcast
8:54 AM 25.0 °F 17.1 °F 21.0 °F 85% 30.30 in 6.0 mi SW 6.9 mph - N/A   Mostly Cloudy
9:54 AM 30.0 °F 21.7 °F 24.1 °F 79% 30.33 in 10.0 mi West 9.2 mph - N/A   Overcast
10:54 AM 30.9 °F 22.2 °F 24.1 °F 76% 30.34 in 10.0 mi WNW 10.4 mph - N/A   Scattered Clouds
11:54 AM 32.0 °F 24.2 °F 25.0 °F 75% 30.33 in 10.0 mi WNW 9.2 mph - N/A   Overcast
12:54 PM 33.1 °F 23.4 °F 24.1 °F 70% 30.32 in 10.0 mi West 13.8 mph - N/A   Overcast
1:39 PM 33.8 °F 25.3 °F 23.0 °F 65% 30.28 in 10.0 mi West 11.5 mph - N/A   Overcast
1:54 PM 34.0 °F 23.4 °F 23.0 °F 64% 30.31 in 10.0 mi WNW 17.3 mph - N/A   Overcast
2:12 PM 33.8 °F 22.8 °F 23.0 °F 65% 30.29 in 10.0 mi WNW 18.4 mph - N/A   Mostly Cloudy
2:50 PM 30.2 °F 22.6 °F 24.8 °F 80% 30.31 in 10.0 mi NW 8.1 mph - N/A   Overcast
2:54 PM 30.9 °F 24.3 °F 25.0 °F 79% 30.33 in 10.0 mi NW 6.9 mph - N/A   Overcast
3:01 PM 30.2 °F 22.6 °F 24.8 °F 80% 30.31 in 10.0 mi NW 8.1 mph - N/A   Overcast
3:54 PM 30.0 °F 22.4 °F 24.1 °F 79% 30.35 in 10.0 mi NW 8.1 mph - N/A   Overcast
4:54 PM 28.0 °F 24.2 °F 23.0 °F 81% 30.36 in 9.0 mi NW 3.5 mph - N/A   Overcast
5:54 PM 26.1 °F - 21.9 °F 84% 30.37 in 9.0 mi Calm Calm - N/A   Mostly Cloudy
6:54 PM 28.0 °F 20.0 °F 23.0 °F 81% 30.38 in 9.0 mi NW 8.1 mph - N/A   Overcast
7:54 PM 24.1 °F 14.4 °F 16.0 °F 71% 30.40 in 10.0 mi NNW 9.2 mph - N/A   Clear
8:54 PM 19.9 °F 11.1 °F 12.0 °F 71% 30.41 in 10.0 mi NW 6.9 mph - N/A   Clear
9:54 PM 19.0 °F 8.2 °F 10.9 °F 71% 30.41 in 10.0 mi WNW 9.2 mph - N/A   Clear
10:54 PM 16.0 °F 10.4 °F 9.0 °F 74% 30.40 in 10.0 mi WNW 3.5 mph - N/A   Clear
11:54 PM 16.0 °F 10.4 °F 9.0 °F 74% 30.38 in 10.0 mi WSW 3.5 mph - N/A   Clear